Cape Girardeau, MO

10:28 AM CDT on June 25, 2017 (GMT -0500)
Cape Girardeau Regional

Weather History for KCGI - March, 2012

Change the Weather History Date:

Monday, March 19, 2012

  Actual Average Record
Temperature  
Mean Temperature 73 °F 48 °F  
Max Temperature 79 °F 59 °F 81 °F (1995)
Min Temperature 66 °F 37 °F 15 °F (1965)
Degree Days  
Heating Degree Days 0 17  
Month to date heating degree days 182 378  
Since 1 July heating degree days 3101 3875  
Cooling Degree Days 8 0  
Month to date cooling degree days 19 0  
Year to date cooling degree days 19 0  
Growing Degree Days 22 (Base 50)    
Moisture  
Dew Point 58 °F    
Average Humidity 66    
Maximum Humidity 81    
Minimum Humidity 50    
Precipitation  
Precipitation 0.00 in 0.15 in 1.70 in (1968)
Month to date precipitation 2.52 2.54  
Year to date precipitation 7.40 9.42  
Sea Level Pressure  
Sea Level Pressure 29.97 in    
Wind  
Wind Speed 11 mph (SSE)    
Max Wind Speed 21 mph    
Max Gust Speed 28 mph    
Visibility 10 miles    
Events      
T = Trace of Precipitation, MM = Missing Value Source: NWS Daily Summary

Daily Weather History Graph

Daily Weather History Graph

Search for Another Location

Airport or City:

Trip Planner

Search our weather history database for the weather conditions in past years. The results will help you decide how hot, cold, wet, or windy it might be!

Date:

Astronomy

Mar. 19, 2012 Rise Set
Actual Time 7:02 AM CDT 7:09 PM CDT
Civil Twilight 6:36 AM CDT 7:35 PM CDT
Nautical Twilight 6:06 AM CDT 8:06 PM CDT
Astronomical Twilight 5:35 AM CDT 8:36 PM CDT
Moon 5:11 AM CDT (3/19) 4:40 PM CDT (3/19)
Length of Visible Light 12h 59m
Length of Day
12h 07m
Waning Crescent, 8% of the Moon is Illuminated
Mar 19
Waning Crescent
Mar 22
New
Mar 30
First Quarter
Apr 6
Full
Apr 13
Last Quarter

Hourly Weather History & Observations

Time (CDT) Temp. Dew Point Humidity Pressure Visibility Wind Dir Wind Speed Gust Speed Precip Events Conditions
12:53 AM 68.0 °F 62.1 °F 81% 30.01 in 10.0 mi South 6.9 mph - N/A   Clear
2:53 AM 68.0 °F 59.0 °F 73% 29.99 in 10.0 mi South 8.1 mph - N/A   Clear
3:53 AM 66.9 °F 57.9 °F 73% 29.98 in 10.0 mi South 8.1 mph - N/A   Clear
4:53 AM 66.9 °F 57.9 °F 73% 29.99 in 10.0 mi South 9.2 mph - N/A   Clear
5:53 AM 66.0 °F 57.9 °F 75% 30.01 in 10.0 mi South 8.1 mph - N/A   Clear
6:53 AM 66.2 °F 59.0 °F 78% 30.02 in 10.0 mi South 9.2 mph - N/A   Clear
7:53 AM 66.0 °F 60.1 °F 81% 30.04 in 10.0 mi South 9.2 mph - N/A   Clear
9:53 AM 71.6 °F 62.6 °F 73% 30.06 in 10.0 mi South 10.4 mph - N/A   Clear
10:53 AM 73.0 °F 64.0 °F 73% 30.05 in 10.0 mi South 12.7 mph 19.6 mph N/A   Clear
11:53 AM 75.0 °F 63.0 °F 66% 30.02 in 10.0 mi South 12.7 mph 20.7 mph N/A   Clear
12:53 PM 78.1 °F 63.0 °F 60% 30.00 in 10.0 mi South 13.8 mph 21.9 mph N/A   Clear
1:53 PM 78.1 °F 61.0 °F 56% 29.98 in 10.0 mi South 15.0 mph 24.2 mph N/A   Clear
2:53 PM 79.0 °F 60.1 °F 52% 29.95 in 10.0 mi SSE 15.0 mph 24.2 mph N/A   Clear
4:53 PM 75.9 °F 55.0 °F 48% 29.92 in 10.0 mi South 13.8 mph 19.6 mph N/A   Clear
5:53 PM 75.9 °F 55.9 °F 50% 29.91 in 10.0 mi South 10.4 mph - N/A   Clear
6:53 PM 73.9 °F 57.0 °F 55% 29.89 in 10.0 mi SE 9.2 mph - N/A   Clear
7:53 PM 72.0 °F 55.0 °F 55% 29.88 in 10.0 mi SE 12.7 mph - N/A   Clear
8:53 PM 70.0 °F 54.0 °F 57% 29.91 in 10.0 mi SSE 10.4 mph - N/A   Clear
9:53 PM 71.1 °F 54.0 °F 55% 29.92 in 10.0 mi SSE 13.8 mph - N/A   Clear
10:53 PM 70.0 °F 54.0 °F 57% 29.94 in 10.0 mi SSE 11.5 mph - N/A   Clear
11:53 PM 69.1 °F 55.0 °F 61% 29.96 in 10.0 mi SE 9.2 mph - N/A   Clear